Location: São Paulo
(23.5507°S, 46.6334°W)
Time: 06:58:36
(UTC-03:00)

Transit 2A - Pass Details

Date: 25 February 2026
Orbit: 590 x 954 km, 66.7° (Epoch: 10 March)

Event Time Altitude Azimuth Distance (km) Brightness Sun altitude
Rises 08:58:47 0° 210° (SSW) 3,105 8.9 39.9°
Reaches altitude 10° 09:01:05 10° 215° (SW) 2,234 8.2 40.5°
Maximum altitude 09:06:03 54° 291° (WNW) 954 6.7 41.6°
Drops below altitude 10° 09:11:32 10° 7° (N) 2,451 8.9 42.8°
Sets 09:14:09 0° 11° (N) 3,434 9.6 43.4°
